Location: Joplin, MO
(37.0842°N, 94.5133°W)
Time: 20:38:59
(UTC+02:00)

Transit 2A Rocket - Pass Details

Date: 28 March 2023
Orbit: 584 x 914 km, 66.7° (Epoch: 06 June)

Event Time Altitude Azimuth Distance (km) Brightness Sun altitude
Rises 03:35:59 0° 336° (NNW) 3,553 9.0 -12.6°
Reaches altitude 10° 03:38:38 10° 342° (NNW) 2,600 8.2 -13.1°
Maximum altitude 03:44:32 51° 57° (ENE) 1,105 5.5 -14.3°
Enters shadow 03:48:25 20° 126° (SE) 1,879 6.4 -15.0°
Drops below altitude 10° 03:50:08 10° 133° (SE) 2,462 - -15.4°
Sets 03:52:34 0° 139° (SE) 3,348 - -15.8°
